WZZ105 LSGG-EDDH

Flight info

Callsign WZZ105
Flight time 1h 23m
Altitude 37000
Route SOSAL N871 KORED DCT BERSU DCT DITON DCT LOKTA DCT TEDGO DCT HAREM DCT LOHRE DCT MASEK DCT ELNAT P605 NOLGO NOLGO3P
Aircraft A320/M-SDE3FGHIRWY/LB1

Departure

Time 2026-05-04 18:37
Airport Geneva International Airport (LSGG)

Arrival

Time 2026-05-04 20:00
Airport Hamburg Helmut Schmidt Airport (EDDH)
Time Latitude Longitude Altitude Speed Heading
2026-05-04 18:17 46.23054 6.10614 1393 ft 0 kts 136°
2026-05-04 18:25 46.23061 6.10604 1398 ft 4 kts 133°
2026-05-04 18:25 46.23077 6.10575 1402 ft 4 kts 114°
2026-05-04 18:25 46.23082 6.10542 1399 ft 4 kts 69°
2026-05-04 18:25 46.23077 6.10529 1402 ft 0 kts 45°
2026-05-04 18:29 46.23078 6.10529 1402 ft 1 kts 45°
2026-05-04 18:29 46.23085 6.10540 1403 ft 3 kts 45°
2026-05-04 18:29 46.23120 6.10591 1400 ft 9 kts 45°
2026-05-04 18:29 46.23170 6.10663 1400 ft 11 kts 45°
2026-05-04 18:30 46.23315 6.10801 1400 ft 15 kts 23°
2026-05-04 18:30 46.23394 6.10905 1394 ft 16 kts 43°
2026-05-04 18:30 46.23480 6.11026 1404 ft 18 kts 46°
2026-05-04 18:31 46.23557 6.11141 1402 ft 10 kts 45°
2026-05-04 18:31 46.23619 6.11137 1401 ft 12 kts 316°
2026-05-04 18:31 46.23692 6.11069 1386 ft 15 kts 13°
2026-05-04 18:31 46.23786 6.11198 1378 ft 22 kts 45°
2026-05-04 18:32 46.23903 6.11370 1373 ft 26 kts 45°
2026-05-04 18:32 46.24036 6.11566 1369 ft 29 kts 45°
2026-05-04 18:32 46.24187 6.11787 1364 ft 33 kts 45°
2026-05-04 18:32 46.24350 6.12026 1365 ft 33 kts 46°
2026-05-04 18:33 46.24505 6.12254 1372 ft 31 kts 45°
2026-05-04 18:33 46.24664 6.12489 1365 ft 35 kts 46°
2026-05-04 18:33 46.24809 6.12666 1362 ft 14 kts 14°
2026-05-04 18:33 46.24890 6.12708 1365 ft 9 kts 16°
2026-05-04 18:34 46.24897 6.12711 1365 ft 0 kts 16°
2026-05-04 18:35 46.24898 6.12711 1365 ft 2 kts 16°
2026-05-04 18:35 46.24936 6.12727 1366 ft 6 kts 16°
2026-05-04 18:35 46.24996 6.12732 1370 ft 11 kts 342°
2026-05-04 18:36 46.25002 6.12652 1371 ft 10 kts 227°
2026-05-04 18:36 46.24985 6.12627 1371 ft 0 kts 225°
2026-05-04 18:36 46.24980 6.12620 1370 ft 5 kts 225°
2026-05-04 18:36 46.24842 6.12419 1372 ft 61 kts 225°
2026-05-04 18:37 46.24396 6.11762 1372 ft 119 kts 225°
2026-05-04 18:37 46.23709 6.10754 1383 ft 161 kts 225°
2026-05-04 18:37 46.22895 6.09541 1859 ft 164 kts 226°
2026-05-04 18:37 46.22096 6.08371 2505 ft 164 kts 225°
2026-05-04 18:38 46.21345 6.07117 3092 ft 170 kts 245°
2026-05-04 18:38 46.21283 6.05349 3366 ft 190 kts 291°
2026-05-04 18:38 46.22136 6.03873 3801 ft 199 kts 333°
2026-05-04 18:38 46.23488 6.03599 4364 ft 202 kts 17°
2026-05-04 18:39 46.24782 6.04382 4961 ft 204 kts 25°
2026-05-04 18:39 46.26085 6.05236 5569 ft 207 kts 25°
2026-05-04 18:39 46.27311 6.06331 6111 ft 212 kts 43°
2026-05-04 18:39 46.28443 6.07852 6364 ft 232 kts 43°
2026-05-04 18:40 46.29684 6.09532 6654 ft 257 kts 44°
2026-05-04 18:40 46.31043 6.11380 7147 ft 275 kts 44°
2026-05-04 18:40 46.32456 6.13298 7940 ft 281 kts 43°
2026-05-04 18:40 46.33898 6.15249 8764 ft 286 kts 43°
2026-05-04 18:41 46.35364 6.17227 9574 ft 290 kts 43°
2026-05-04 18:41 46.36857 6.19219 10298 ft 298 kts 43°
2026-05-04 18:41 46.38448 6.21301 10551 ft 319 kts 42°
2026-05-04 18:41 46.40160 6.23524 10741 ft 342 kts 42°
2026-05-04 18:42 46.41962 6.25863 11153 ft 353 kts 43°
2026-05-04 18:42 46.43764 6.28246 11743 ft 357 kts 43°
2026-05-04 18:42 46.45605 6.30706 12364 ft 362 kts 43°
2026-05-04 18:42 46.47463 6.33207 13010 ft 366 kts 43°
2026-05-04 18:43 46.49337 6.35735 13635 ft 370 kts 43°
2026-05-04 18:43 46.51236 6.38291 14248 ft 374 kts 43°
2026-05-04 18:43 46.53122 6.40905 14825 ft 377 kts 48°
2026-05-04 18:43 46.54707 6.43959 15367 ft 382 kts 59°
2026-05-04 18:44 46.55853 6.47447 15901 ft 384 kts 71°
2026-05-04 18:44 46.56351 6.49972 16275 ft 386 kts 79°
2026-05-04 18:44 46.56642 6.55123 16993 ft 389 kts 93°
2026-05-04 18:44 46.56546 6.59074 17534 ft 393 kts 93°
2026-05-04 18:45 46.56448 6.63064 18066 ft 397 kts 93°
2026-05-04 18:45 46.56350 6.67084 18593 ft 401 kts 93°
2026-05-04 18:45 46.56247 6.71147 19133 ft 404 kts 93°
2026-05-04 18:45 46.56139 6.75242 19669 ft 407 kts 93°
2026-05-04 18:46 46.56032 6.79370 20204 ft 410 kts 93°
2026-05-04 18:46 46.56128 6.83516 20692 ft 413 kts 83°
2026-05-04 18:46 46.56746 6.87616 21147 ft 418 kts 72°
2026-05-04 18:46 46.57884 6.91524 21594 ft 422 kts 62°
2026-05-04 18:47 46.59507 6.95090 22028 ft 426 kts 51°
2026-05-04 18:47 46.61378 6.98445 22464 ft 428 kts 51°
2026-05-04 18:47 46.63259 7.01823 22885 ft 431 kts 51°
2026-05-04 18:47 46.65149 7.05230 23315 ft 434 kts 51°
2026-05-04 18:48 46.67048 7.08663 23740 ft 437 kts 51°
2026-05-04 18:48 46.68953 7.12112 24121 ft 439 kts 51°
2026-05-04 18:48 46.70873 7.15591 24512 ft 442 kts 51°
2026-05-04 18:48 46.72805 7.19093 24895 ft 444 kts 51°
2026-05-04 18:49 46.74743 7.22613 25266 ft 447 kts 51°
2026-05-04 18:49 46.76693 7.26156 25648 ft 449 kts 51°
2026-05-04 18:49 46.78645 7.29707 26010 ft 451 kts 51°
2026-05-04 18:49 46.80613 7.33292 26376 ft 453 kts 52°
2026-05-04 18:50 46.82584 7.36891 26730 ft 456 kts 52°
2026-05-04 18:50 46.84568 7.40516 27087 ft 458 kts 52°
2026-05-04 18:50 46.86564 7.44164 27435 ft 460 kts 52°
2026-05-04 18:50 46.88558 7.47823 27781 ft 462 kts 52°
2026-05-04 18:51 46.90559 7.51506 28106 ft 464 kts 52°
2026-05-04 18:51 46.92571 7.55215 28418 ft 466 kts 52°
2026-05-04 18:51 46.94589 7.58934 28781 ft 467 kts 52°
2026-05-04 18:51 46.96606 7.62645 29256 ft 465 kts 52°
2026-05-04 18:52 46.98617 7.66354 29708 ft 464 kts 52°
2026-05-04 18:52 47.00617 7.70051 30151 ft 463 kts 52°
2026-05-04 18:52 47.02612 7.73751 30598 ft 462 kts 52°
2026-05-04 18:52 47.04600 7.77449 31042 ft 461 kts 52°
2026-05-04 18:53 47.06583 7.81138 31461 ft 461 kts 52°
2026-05-04 18:53 47.08568 7.84830 31873 ft 460 kts 52°
2026-05-04 18:53 47.10553 7.88523 32287 ft 460 kts 52°
2026-05-04 18:53 47.12530 7.92206 32696 ft 459 kts 52°
2026-05-04 18:54 47.14377 7.96018 33102 ft 458 kts 58°
2026-05-04 18:54 47.16067 7.99984 33501 ft 457 kts 59°
2026-05-04 18:54 47.17753 8.03943 33891 ft 457 kts 58°
2026-05-04 18:54 47.19439 8.07898 34295 ft 456 kts 58°
2026-05-04 18:55 47.21121 8.11843 34694 ft 455 kts 58°
2026-05-04 18:55 47.24483 8.19745 35024 ft 459 kts 58°
2026-05-04 18:55 47.26181 8.23754 35031 ft 462 kts 58°
2026-05-04 18:56 47.29813 8.31566 35016 ft 464 kts 48°
2026-05-04 18:56 47.34731 8.37672 35017 ft 463 kts 32°
2026-05-04 18:57 47.40134 8.42864 35009 ft 463 kts 33°
2026-05-04 18:57 47.45507 8.48078 35006 ft 463 kts 33°
2026-05-04 18:58 47.50881 8.53322 35002 ft 463 kts 33°
2026-05-04 18:58 47.56265 8.58567 35002 ft 463 kts 33°
2026-05-04 18:59 47.61646 8.63819 35007 ft 463 kts 33°
2026-05-04 18:59 47.66992 8.69044 35000 ft 463 kts 33°
2026-05-04 19:00 47.72362 8.74308 34996 ft 463 kts 33°
2026-05-04 19:00 47.77732 8.79583 35000 ft 462 kts 33°
2026-05-04 19:01 47.83096 8.84872 35002 ft 462 kts 33°
2026-05-04 19:01 47.88451 8.90171 34985 ft 462 kts 33°
2026-05-04 19:02 47.93810 8.95476 34988 ft 462 kts 33°
2026-05-04 19:02 47.99165 9.00792 34985 ft 462 kts 33°
2026-05-04 19:03 48.04511 9.06104 34981 ft 462 kts 33°
2026-05-04 19:03 48.09851 9.11440 34978 ft 462 kts 33°
2026-05-04 19:04 48.15321 9.16453 34977 ft 461 kts 24°
2026-05-04 19:04 48.21455 9.19084 34978 ft 459 kts
2026-05-04 19:05 48.27798 9.20131 34976 ft 459 kts
2026-05-04 19:05 48.34131 9.21210 34976 ft 458 kts
2026-05-04 19:06 48.40487 9.22299 34966 ft 460 kts
2026-05-04 19:06 48.46842 9.23367 34969 ft 460 kts
2026-05-04 19:07 48.53201 9.24456 34970 ft 460 kts
2026-05-04 19:07 48.59490 9.25527 34973 ft 460 kts
2026-05-04 19:08 48.65941 9.26581 34972 ft 459 kts
2026-05-04 19:08 48.72260 9.27532 34967 ft 459 kts
2026-05-04 19:09 48.78665 9.28486 34968 ft 460 kts
2026-05-04 19:09 48.84986 9.29452 34968 ft 459 kts
2026-05-04 19:10 48.90313 9.30275 34969 ft 459 kts
2026-05-04 19:10 48.97696 9.31415 34966 ft 458 kts
2026-05-04 19:11 49.04037 9.32392 34966 ft 458 kts
2026-05-04 19:11 49.09312 9.33201 34966 ft 458 kts
2026-05-04 19:12 49.18842 9.34690 34966 ft 459 kts
2026-05-04 19:13 49.25208 9.35693 34987 ft 461 kts
2026-05-04 19:13 49.31600 9.36708 34995 ft 463 kts
2026-05-04 19:14 49.38005 9.37698 34996 ft 462 kts
2026-05-04 19:14 49.44391 9.38684 35001 ft 461 kts
2026-05-04 19:15 49.50762 9.39695 34999 ft 460 kts
2026-05-04 19:15 49.57127 9.40709 34989 ft 459 kts
2026-05-04 19:16 49.63487 9.41713 34987 ft 459 kts
2026-05-04 19:16 49.69844 9.42722 34988 ft 459 kts
2026-05-04 19:17 49.76202 9.43737 34987 ft 460 kts
2026-05-04 19:17 49.82564 9.44752 34994 ft 459 kts
2026-05-04 19:18 49.88881 9.45756 34992 ft 459 kts
2026-05-04 19:18 49.92432 9.46320 34979 ft 457 kts 355°
2026-05-04 19:19 49.98571 9.45265 34980 ft 455 kts
2026-05-04 19:19 50.04818 9.47125 34979 ft 460 kts 13°
2026-05-04 19:20 50.11044 9.49443 34981 ft 460 kts
2026-05-04 19:20 50.17367 9.50799 34978 ft 458 kts
2026-05-04 19:21 50.23718 9.51619 34978 ft 458 kts
2026-05-04 19:21 50.30077 9.52612 34980 ft 459 kts
2026-05-04 19:22 50.36408 9.54001 34995 ft 460 kts
2026-05-04 19:22 50.40615 9.54971 34998 ft 460 kts
2026-05-04 19:23 50.46382 9.56666 35015 ft 460 kts
2026-05-04 19:23 50.52773 9.57825 35012 ft 460 kts
2026-05-04 19:24 50.59141 9.58873 35014 ft 460 kts
2026-05-04 19:24 50.65449 9.60142 35010 ft 460 kts
2026-05-04 19:25 50.71800 9.61553 35005 ft 461 kts
2026-05-04 19:25 50.78146 9.62948 35010 ft 461 kts
2026-05-04 19:26 50.84502 9.64287 35005 ft 461 kts
2026-05-04 19:26 50.90853 9.65604 35005 ft 461 kts
2026-05-04 19:27 50.97212 9.66951 35005 ft 461 kts
2026-05-04 19:27 51.03570 9.68316 35007 ft 461 kts
2026-05-04 19:28 51.09929 9.69676 35004 ft 461 kts
2026-05-04 19:28 51.16290 9.71022 35013 ft 461 kts
2026-05-04 19:29 51.22660 9.72383 35012 ft 462 kts
2026-05-04 19:29 51.29025 9.73757 35009 ft 461 kts
2026-05-04 19:30 51.35388 9.75132 35014 ft 461 kts
2026-05-04 19:30 51.41758 9.76388 35008 ft 461 kts
2026-05-04 19:31 51.48137 9.77472 35012 ft 461 kts
2026-05-04 19:31 51.54526 9.78559 35021 ft 462 kts
2026-05-04 19:32 51.60904 9.79725 35018 ft 461 kts
2026-05-04 19:32 51.67277 9.80934 35016 ft 461 kts
2026-05-04 19:33 51.73658 9.82111 35013 ft 461 kts
2026-05-04 19:33 51.80032 9.83279 35009 ft 460 kts
2026-05-04 19:34 51.86386 9.84453 35006 ft 460 kts
2026-05-04 19:34 51.92746 9.85642 34991 ft 460 kts
2026-05-04 19:35 51.99108 9.86820 34988 ft 461 kts
2026-05-04 19:35 52.05483 9.88001 34995 ft 461 kts
2026-05-04 19:35 52.08632 9.88585 34835 ft 461 kts
2026-05-04 19:36 52.11858 9.89187 34582 ft 461 kts
2026-05-04 19:36 52.15044 9.89783 34333 ft 461 kts
2026-05-04 19:36 52.18231 9.90381 34079 ft 461 kts
2026-05-04 19:36 52.21421 9.90981 33833 ft 462 kts
2026-05-04 19:37 52.24617 9.91587 33584 ft 463 kts
2026-05-04 19:37 52.27813 9.92194 33336 ft 464 kts
2026-05-04 19:37 52.30997 9.92798 33083 ft 456 kts
2026-05-04 19:37 52.34114 9.93387 32829 ft 446 kts
2026-05-04 19:38 52.37166 9.93966 32579 ft 437 kts
2026-05-04 19:38 52.40155 9.94539 32326 ft 428 kts
2026-05-04 19:38 52.43096 9.95099 32072 ft 421 kts
2026-05-04 19:38 52.45990 9.95649 31822 ft 418 kts
2026-05-04 19:39 52.48870 9.96195 31491 ft 416 kts
2026-05-04 19:39 52.51773 9.96739 30797 ft 420 kts
2026-05-04 19:39 52.54644 9.97280 30178 ft 411 kts
2026-05-04 19:39 52.57467 9.97818 29552 ft 404 kts
2026-05-04 19:40 52.60191 9.98343 29323 ft 387 kts
2026-05-04 19:40 52.62833 9.98857 28825 ft 378 kts
2026-05-04 19:40 52.65427 9.99358 28239 ft 373 kts
2026-05-04 19:40 52.67986 9.99848 27624 ft 368 kts
2026-05-04 19:41 52.70517 10.00332 26992 ft 364 kts
2026-05-04 19:41 52.73021 10.00812 26371 ft 360 kts
2026-05-04 19:41 52.75494 10.01283 25751 ft 356 kts
2026-05-04 19:41 52.77940 10.01747 25136 ft 352 kts
2026-05-04 19:42 52.80342 10.02209 24707 ft 350 kts
2026-05-04 19:42 52.82773 10.02682 24091 ft 345 kts
2026-05-04 19:42 52.85147 10.03141 23468 ft 342 kts
2026-05-04 19:42 52.87498 10.03599 22857 ft 338 kts
2026-05-04 19:43 52.89797 10.04043 22303 ft 336 kts
2026-05-04 19:43 52.92105 10.04489 21719 ft 332 kts
2026-05-04 19:43 52.94394 10.04934 21121 ft 330 kts
2026-05-04 19:43 52.96662 10.05376 20544 ft 327 kts
2026-05-04 19:44 52.98907 10.05813 19962 ft 324 kts
2026-05-04 19:44 53.01133 10.06248 19430 ft 320 kts
2026-05-04 19:44 53.03337 10.06681 18879 ft 317 kts
2026-05-04 19:44 53.05509 10.07107 18445 ft 311 kts
2026-05-04 19:45 53.07661 10.07529 18020 ft 313 kts
2026-05-04 19:45 53.09824 10.07953 17673 ft 313 kts
2026-05-04 19:45 53.11985 10.08378 17273 ft 314 kts
2026-05-04 19:45 53.14131 10.08802 17069 ft 309 kts
2026-05-04 19:46 53.16261 10.09219 16745 ft 307 kts
2026-05-04 19:46 53.18386 10.09629 16437 ft 306 kts
2026-05-04 19:46 53.20490 10.10039 15936 ft 303 kts
2026-05-04 19:46 53.22575 10.10449 15380 ft 301 kts
2026-05-04 19:47 53.24645 10.10857 14839 ft 298 kts
2026-05-04 19:47 53.26696 10.11261 14308 ft 296 kts
2026-05-04 19:47 53.28726 10.11661 13771 ft 292 kts
2026-05-04 19:47 53.30740 10.12063 13231 ft 290 kts
2026-05-04 19:48 53.32737 10.12464 12703 ft 288 kts
2026-05-04 19:48 53.34712 10.12855 12209 ft 283 kts
2026-05-04 19:48 53.36663 10.13231 11699 ft 280 kts
2026-05-04 19:48 53.38582 10.13607 11241 ft 276 kts
2026-05-04 19:49 53.40473 10.13739 10852 ft 268 kts 354°
2026-05-04 19:49 53.42334 10.13507 10753 ft 278 kts 357°
2026-05-04 19:49 53.44285 10.14067 10608 ft 286 kts 22°
2026-05-04 19:49 53.45965 10.15735 10281 ft 279 kts 33°
2026-05-04 19:50 53.47531 10.17594 9916 ft 274 kts 34°
2026-05-04 19:50 53.49080 10.19472 9607 ft 274 kts 34°
2026-05-04 19:50 53.50615 10.21342 9338 ft 272 kts 34°
2026-05-04 19:50 53.52145 10.23212 9051 ft 272 kts 34°
2026-05-04 19:51 53.53698 10.25003 8791 ft 269 kts 27°
2026-05-04 19:51 53.55373 10.26300 8574 ft 259 kts 20°
2026-05-04 19:51 53.57027 10.27418 8174 ft 254 kts 19°
2026-05-04 19:51 53.58664 10.28505 7733 ft 252 kts 19°
2026-05-04 19:52 53.60286 10.29576 7292 ft 249 kts 19°
2026-05-04 19:52 53.61891 10.30632 6829 ft 246 kts 19°
2026-05-04 19:52 53.63475 10.31681 6361 ft 244 kts 21°
2026-05-04 19:52 53.64976 10.33001 5891 ft 243 kts 28°
2026-05-04 19:53 53.66423 10.34457 5433 ft 241 kts 30°
2026-05-04 19:53 53.67853 10.35913 5035 ft 237 kts 30°
2026-05-04 19:53 53.69311 10.37198 4691 ft 236 kts 14°
2026-05-04 19:53 53.70901 10.37258 4254 ft 229 kts 343°
2026-05-04 19:54 53.72401 10.36315 3937 ft 231 kts 335°
2026-05-04 19:54 53.73836 10.35236 3783 ft 219 kts 335°
2026-05-04 19:54 53.75178 10.34167 3524 ft 209 kts 328°
2026-05-04 19:54 53.76149 10.32427 3141 ft 206 kts 298°
2026-05-04 19:55 53.76608 10.30160 2996 ft 206 kts 277°
2026-05-04 19:55 53.76576 10.27745 3003 ft 203 kts 258°
2026-05-04 19:55 53.76114 10.25642 3032 ft 187 kts 240°
2026-05-04 19:55 53.75351 10.23914 3010 ft 181 kts 231°
2026-05-04 19:56 53.74553 10.22281 3005 ft 180 kts 231°
2026-05-04 19:56 53.73760 10.20655 3006 ft 179 kts 231°
2026-05-04 19:56 53.73233 10.19578 2925 ft 179 kts 231°
2026-05-04 19:56 53.72176 10.17418 2661 ft 177 kts 231°
2026-05-04 19:57 53.71657 10.16360 2507 ft 177 kts 231°
2026-05-04 19:57 53.70878 10.14768 2278 ft 176 kts 231°
2026-05-04 19:57 53.70103 10.13190 2059 ft 172 kts 231°
2026-05-04 19:57 53.69353 10.11662 1824 ft 167 kts 231°
2026-05-04 19:58 53.68626 10.10180 1624 ft 156 kts 231°
2026-05-04 19:58 53.67961 10.08828 1412 ft 145 kts 231°
2026-05-04 19:58 53.67324 10.07534 1206 ft 141 kts 231°
2026-05-04 19:58 53.66701 10.06266 1028 ft 140 kts 231°
2026-05-04 19:59 53.66084 10.05009 845 ft 139 kts 231°
2026-05-04 19:59 53.65468 10.03759 660 ft 138 kts 231°
2026-05-04 19:59 53.64853 10.02515 473 ft 138 kts 231°
2026-05-04 19:59 53.64243 10.01274 297 ft 138 kts 231°
2026-05-04 20:00 53.63636 10.00044 107 ft 137 kts 231°
2026-05-04 20:00 53.63065 9.98879 46 ft 110 kts 230°
2026-05-04 20:00 53.62686 9.98112 42 ft 60 kts 230°
2026-05-04 20:00 53.62522 9.97798 40 ft 16 kts 209°
2026-05-04 20:01 53.62431 9.97853 41 ft 15 kts 117°
2026-05-04 20:01 53.62440 9.98013 45 ft 15 kts 76°
2026-05-04 20:01 53.62464 9.98196 45 ft 17 kts 79°
2026-05-04 20:01 53.62487 9.98414 47 ft 20 kts 79°
2026-05-04 20:02 53.62558 9.98464 47 ft 13 kts 346°
2026-05-04 20:02 53.62654 9.98476 45 ft 16 kts 43°
2026-05-04 20:02 53.62737 9.98646 47 ft 20 kts 50°
2026-05-04 20:02 53.62831 9.98834 45 ft 23 kts 49°
2026-05-04 20:03 53.62947 9.99070 45 ft 26 kts 50°
2026-05-04 20:03 53.63054 9.99292 44 ft 21 kts 52°
2026-05-04 20:03 53.63072 9.99333 47 ft 1 kts 55°
2026-05-04 20:03 53.63072 9.99334 47 ft 0 kts 55°
2026-05-04 20:04 53.63074 9.99339 44 ft 2 kts 55°
2026-05-04 20:04 53.63088 9.99372 44 ft 5 kts 54°
2026-05-04 20:05 53.63118 9.99446 44 ft 13 kts 56°
2026-05-04 20:05 53.63191 9.99607 45 ft 19 kts 50°
2026-05-04 20:05 53.63214 9.99653 48 ft 0 kts 50°
2026-05-04 20:06 53.63223 9.99671 48 ft 4 kts 52°
2026-05-04 20:06 53.63231 9.99731 48 ft 7 kts 99°
2026-05-04 20:06 53.63187 9.99793 48 ft 10 kts 152°
2026-05-04 20:06 53.63135 9.99838 46 ft 5 kts 153°
2026-05-04 20:07 53.63094 9.99873 48 ft 9 kts 153°
2026-05-04 20:07 53.63030 9.99928 48 ft 12 kts 153°
2026-05-04 20:07 53.62948 10.00015 46 ft 12 kts 123°
2026-05-04 20:07 53.62923 10.00131 45 ft 9 kts 121°
2026-05-04 20:08 53.62894 10.00206 48 ft 3 kts 122°
2026-05-04 20:08 53.62890 10.00218 48 ft 0 kts 122°